EW3511 Weather Reports


time (UTC)temp
C
wind
direction
speed
KPH
gust
KPH
rain 1hr
cm
rain 24hr
cm
rain mn
cm
humidity
%
barometer
mb
20200217012552 7 148 1.6 4.8 0.00 0.00 0.00 62 1016.9
20200217011543 7 171 1.6 4.8 0.00 0.00 0.00 63 1016.9
20200217010552 7 184 1.6 4.8 0.00 0.00 0.00 63 1016.9
20200217005603 7 189 1.6 4.8 0.00 0.00 0.00 64 1016.8
20200217004543 6 197 0.0 1.6 0.00 0.00 0.00 65 1016.9
20200217003639 6 164 1.6 4.8 0.00 0.00 0.00 65 1016.9
20200217002624 6 0.0 0.0 0.00 0.00 0.00 65 1017.1
20200217001556 6 207 1.6 4.8 0.00 0.00 0.00 65 1017.2
20200217000534 6 247 0.0 1.6 0.00 0.00 0.00 65 1017.1
20200216235540 6 202 0.0 4.8 0.00 0.00 0.00 66 1017.0
20200216234600 6 180 0.0 1.6 0.00 0.00 0.00 67 1017.1
20200216233541 6 337 0.0 1.6 0.00 0.00 0.00 67 1017.1
20200216232555 6 0.0 0.0 0.00 0.00 0.00 67 1017.2
20200216231627 6 0.0 0.0 0.00 0.00 0.00 67 1017.2
20200216230541 6 0.0 0.0 0.00 0.00 0.00 66 1017.2
20200216225645 6 345 0.0 1.6 0.00 0.00 0.00 66 1017.1
20200216224627 6 292 0.0 1.6 0.00 0.00 0.00 66 1017.0
20200216223629 6 0.0 0.0 0.00 0.00 0.00 66 1017.0
20200216222555 6 301 1.6 4.8 0.00 0.00 0.00 66 1017.0
20200216221601 6 0.0 0.0 0.00 0.00 0.00 65 1016.9
20200216220602 6 0.0 0.0 0.00 0.00 0.00 65 1016.7
20200216215601 6 0.0 1.6 0.00 0.00 0.00 64 1016.4
20200216214614 6 0.0 0.0 0.00 0.00 0.00 64 1016.4
20200216213641 6 0.0 0.0 0.00 0.00 0.00 64 1016.3
20200216212604 7 0.0 0.0 0.00 0.00 0.00 63 1016.4
20200216211633 7 0.0 1.6 0.00 0.00 0.00 63 1016.5
20200216210646 7 0.0 0.0 0.00 0.00 0.00 63 1016.4
20200216205610 7 0.0 0.0 0.00 0.00 0.00 63 1016.5
20200216204641 7 225 0.0 1.6 0.00 0.00 0.00 63 1016.6
20200216203606 7 202 1.6 4.8 0.00 0.00 0.00 62 1016.8
20200216202619 7 202 0.0 1.6 0.00 0.00 0.00 62 1016.8
20200216201559 7 202 0.0 1.6 0.00 0.00 0.00 61 1016.9
20200216200633 7 0.0 0.0 0.00 0.00 0.00 61 1016.9
20200216195634 8 0.0 0.0 0.00 0.00 0.00 60 1017.0
20200216194543 8 0.0 0.0 0.00 0.00 0.00 60 1017.1
20200216193545 8 0.0 0.0 0.00 0.00 0.00 59 1016.9
20200216192610 8 292 0.0 1.6 0.00 0.00 0.00 59 1016.9
20200216191601 8 0.0 0.0 0.00 0.00 0.00 58 1016.9
20200216190548 9 315 0.0 1.6 0.00 0.00 0.00 57 1017.0
20200216185600 9 309 3.2 6.4 0.00 0.00 0.00 56 1017.0
20200216184543 10 304 1.6 1.6 0.00 0.00 0.00 55 1016.8
20200216183600 10 315 1.6 4.8 0.00 0.00 0.00 54 1016.5
20200216182609 10 0.0 1.6 0.00 0.00 0.00 53 1016.5
20200216181617 11 304 0.0 1.6 0.00 0.00 0.00 52 1016.5
20200216180634 11 247 0.0 4.8 0.00 0.00 0.00 51 1016.4
20200216175616 11 270 1.6 4.8 0.00 0.00 0.00 49 1016.5
20200216174557 12 206 1.6 6.4 0.00 0.00 0.00 48 1016.3
20200216173604 12 160 6.4 12.9 0.00 0.00 0.00 46 1016.2
20200216172539 12 159 6.4 8.0 0.00 0.00 0.00 47 1016.2
20200216171541 12 173 3.2 8.0 0.00 0.00 0.00 49 1016.4
20200216170549 12 173 4.8 11.3 0.00 0.00 0.00 48 1016.4
20200216165606 12 150 3.2 8.0 0.00 0.00 0.00 49 1016.4
20200216164549 12 164 1.6 4.8 0.00 0.00 0.00 50 1016.6
20200216163604 12 143 1.6 6.4 0.00 0.00 0.00 49 1016.6
20200216162546 12 184 1.6 4.8 0.00 0.00 0.00 49 1016.6
20200216161603 12 112 1.6 4.8 0.00 0.00 0.00 49 1016.6
20200216160542 13 124 1.6 6.4 0.00 0.00 0.00 49 1016.6
20200216155554 13 164 3.2 6.4 0.00 0.00 0.00 48 1016.9
20200216154601 13 149 6.4 12.9 0.00 0.00 0.00 46 1017.0
20200216153610 13 151 9.7 17.7 0.00 0.00 0.00 48 1016.9
20200216152535 13 149 3.2 8.0 0.00 0.00 0.00 50 1017.0
20200216151542 13 175 3.2 8.0 0.00 0.00 0.00 51 1017.1
20200216150541 13 152 6.4 11.3 0.00 0.00 0.00 50 1017.2
20200216145552 13 154 4.8 8.0 0.00 0.00 0.00 53 1017.5
20200216144607 13 164 4.8 8.0 0.00 0.00 0.00 53 1017.9
20200216143546 13 158 4.8 8.0 0.00 0.00 0.00 54 1018.1
20200216142552 13 159 6.4 11.3 0.00 0.00 0.00 54 1018.3
20200216141601 13 164 6.4 12.9 0.00 0.00 0.00 54 1018.5
20200216140537 13 178 6.4 12.9 0.00 0.00 0.00 54 1018.7
20200216135545 13 157 8.0 12.9 0.00 0.00 0.00 55 1018.8
20200216134547 13 147 8.0 12.9 0.00 0.00 0.00 55 1018.8
20200216133558 13 153 6.4 11.3 0.00 0.00 0.00 54 1018.9
20200216132543 13 153 6.4 8.0 0.00 0.00 0.00 55 1019.1
20200216131558 13 161 3.2 6.4 0.00 0.00 0.00 57 1019.4
20200216130540 12 158 1.6 4.8 0.00 0.00 0.00 58 1019.7
20200216125559 12 177 3.2 6.4 0.00 0.00 0.00 58 1019.8
20200216124559 12 181 1.6 1.6 0.00 0.00 0.00 59 1019.9
20200216123619 12 157 0.0 1.6 0.00 0.00 0.00 60 1019.9
20200216122621 12 315 0.0 1.6 0.00 0.00 0.00 59 1020.0
20200216121603 12 32 1.6 4.8 0.00 0.00 0.00 59 1020.1
20200216120548 11 321 1.6 6.4 0.00 0.00 0.00 59 1020.1
20200216115616 11 327 3.2 8.0 0.00 0.00 0.00 58 1020.3
20200216114542 11 341 1.6 4.8 0.00 0.00 0.00 59 1020.1
20200216113602 11 166 1.6 6.4 0.00 0.00 0.00 60 1020.0
20200216112543 10 182 1.6 4.8 0.00 0.00 0.00 60 1020.1
20200216111548 10 182 1.6 4.8 0.00 0.00 0.00 62 1020.2
20200216110601 9 202 1.6 4.8 0.00 0.00 0.00 62 1020.4
20200216105613 9 177 1.6 4.8 0.00 0.00 0.00 60 1020.4
20200216104542 10 156 4.8 8.0 0.00 0.00 0.00 60 1020.5
20200216103548 10 140 3.2 6.4 0.00 0.00 0.00 61 1020.9
20200216102558 9 209 1.6 6.4 0.00 0.00 0.00 63 1021.0
20200216101606 8 165 1.6 6.4 0.00 0.00 0.00 64 1021.0
20200216100539 7 186 3.2 8.0 0.00 0.00 0.00 64 1020.7
20200216095550 7 161 6.4 11.3 0.00 0.00 0.00 64 1020.5
20200216094535 6 148 1.6 4.8 0.00 0.00 0.00 67 1020.5
20200216093540 5 45 0.0 1.6 0.00 0.00 0.00 67 1020.7
20200216092620 5 0.0 0.0 0.00 0.00 0.00 68 1020.7
20200216091605 5 202 0.0 1.6 0.00 0.00 0.00 67 1020.7
20200216090618 5 199 0.0 1.6 0.00 0.00 0.00 67 1020.9
20200216085551 5 157 0.0 1.6 0.00 0.00 0.00 68 1020.8
20200216084547 5 225 0.0 1.6 0.00 0.00 0.00 68 1020.8
20200216083614 5 176 1.6 4.8 0.00 0.00 0.00 68 1020.8
20200216082543 4 0.0 0.0 0.00 0.00 0.00 68 1020.8
20200216081600 4 189 0.0 4.8 0.00 0.00 0.00 68 1020.8
20200216080533 5 198 0.0 4.8 0.00 0.00 0.00 68 1020.9
20200216075543 5 202 0.0 1.6 0.00 0.00 0.00 68 1021.0
20200216074600 5 212 3.2 8.0 0.00 0.00 0.00 68 1021.0
20200216073539 5 188 3.2 11.3 0.00 0.00 0.00 70 1021.1
20200216072543 4 217 1.6 6.4 0.00 0.00 0.00 71 1021.3
20200216071556 3 178 1.6 4.8 0.00 0.00 0.00 73 1021.3
20200216070600 3 167 1.6 4.8 0.00 0.00 0.00 73 1021.3
20200216065610 2 194 3.2 6.4 0.00 0.00 0.00 74 1021.3
20200216064538 2 0.0 0.0 0.00 0.00 0.00 74 1021.3
20200216063553 2 247 1.6 4.8 0.00 0.00 0.00 74 1021.2
20200216062607 2 181 3.2 8.0 0.00 0.00 0.00 74 1021.0
20200216061545 1 165 1.6 4.8 0.00 0.00 0.00 74 1021.3
20200216060626 2 0.0 0.0 0.00 0.00 0.00 74 1021.6
20200216055646 2 0.0 0.0 0.00 0.00 0.00 74 1021.4
20200216054645 2 270 0.0 1.6 0.00 0.00 0.00 74 1021.3
20200216053556 2 202 0.0 4.8 0.00 0.00 0.00 74 1021.0
20200216052540 2 180 0.0 4.8 0.00 0.00 0.00 75 1021.0
20200216051552 1 228 1.6 6.4 0.00 0.00 0.00 76 1021.1
20200216050556 1 180 1.6 6.4 0.00 0.00 0.00 76 1021.3
20200216045604 1 0.0 0.0 0.00 0.00 0.00 75 1021.6
20200216044645 1 0.0 0.0 0.00 0.00 0.00 75 1021.7
20200216043633 1 0.0 0.0 0.00 0.00 0.00 75 1021.5
20200216042615 1 0.0 0.0 0.00 0.00 0.00 75 1021.4
20200216041556 1 0.0 0.0 0.00 0.00 0.00 75 1021.5
20200216040612 1 0.0 0.0 0.00 0.00 0.00 76 1021.5
20200216035603 1 213 1.6 4.8 0.00 0.00 0.00 76 1021.5
20200216034606 1 193 1.6 4.8 0.00 0.00 0.00 76 1021.5
20200216033555 1 0.0 0.0 0.00 0.00 0.00 76 1021.8
20200216032730 1 0.0 0.0 0.00 0.00 0.00 76 1021.8
20200216031620 1 315 0.0 1.6 0.00 0.00 0.00 76 1022.0
20200216030559 1 0.0 1.6 0.00 0.00 0.00 76 1022.0
20200216025542 1 202 0.0 1.6 0.00 0.00 0.00 76 1022.0
20200216024628 1 0.0 0.0 0.00 0.00 0.00 77 1022.1
20200216023614 1 0.0 0.0 0.00 0.00 0.00 77 1022.2
20200216022603 1 159 1.6 1.6 0.00 0.00 0.00 77 1022.3
20200216021537 1 236 0.0 1.6 0.00 0.00 0.00 77 1022.7
20200216020637 1 0.0 1.6 0.00 0.00 0.00 77 1022.9
20200216015633 1 0.0 0.0 0.00 0.00 0.00 77 1023.1
20200216014639 1 0.0 0.0 0.00 0.00 0.00 77 1023.0
20200216013600 1 0.0 0.0 0.00 0.00 0.00 77 1023.3